FW3260 Weather Reports


Display with metric or nautical units.
time (UTC)temp
F
wind
direction
speed
MPH
gust
MPH
rain 1hr
in
rain 24hr
in
rain mn
in
humidity
%
barometer
mb
20260507055058 55 270 2.0 3.0 0.00 0.08 0.00 86 1007.7
20260507054019 55 248 1.0 4.0 0.00 0.08 0.00 87 1007.8
20260507053020 55 293 2.0 6.0 0.00 0.08 0.00 87 1007.9
20260507052039 55 248 2.0 8.0 0.00 0.08 0.00 87 1008.0
20260507051018 55 270 2.0 5.0 0.00 0.08 0.00 87 1007.8
20260507050039 55 293 1.0 3.0 0.00 0.08 0.00 88 1007.7
20260507045019 56 315 2.0 7.0 0.00 0.08 0.00 90 1007.8
20260507044019 56 293 2.0 6.0 0.00 0.08 0.00 90 1007.9
20260507043019 57 293 3.0 8.0 0.00 0.08 0.00 92 1007.8
20260507042019 57 293 2.0 4.0 0.00 0.08 0.00 92 1007.6
20260507041019 58 270 1.0 3.0 0.00 0.08 0.00 93 1007.7
20260507040040 58 270 1.0 3.0 0.00 0.08 0.08 93 1007.8
20260507035017 58 315 2.0 10.0 0.00 0.08 0.08 94 1008.0
20260507034018 58 270 2.0 7.0 0.00 0.08 0.08 94 1007.8
20260507033018 59 293 1.0 4.0 0.00 0.08 0.08 94 1007.5
20260507032018 59 270 1.0 4.0 0.00 0.08 0.08 94 1007.3
20260507031058 59 293 1.0 3.0 0.00 0.08 0.08 94 1007.4
20260507030018 59 270 2.0 7.0 0.00 0.08 0.08 95 1007.0
20260507025018 59 315 2.0 7.0 0.00 0.08 0.08 94 1007.0
20260507024017 59 315 2.0 4.0 0.00 0.08 0.08 94 1006.8
20260507023018 59 315 2.0 5.0 0.01 0.08 0.08 94 1006.8
20260507022017 59 270 2.0 7.0 0.01 0.08 0.08 94 1006.9
20260507021017 59 293 3.0 7.0 0.01 0.08 0.08 94 1006.8
20260507020020 59 293 2.0 6.0 0.01 0.08 0.08 94 1006.7
20260507015020 59 315 2.0 5.0 0.01 0.08 0.08 94 1006.8
20260507014019 59 338 2.0 5.0 0.01 0.08 0.08 94 1006.7
20260507013017 59 338 2.0 7.0 0.00 0.07 0.07 94 1006.5
20260507012019 59 315 2.0 5.0 0.00 0.07 0.07 94 1006.6
20260507011019 59 338 2.0 6.0 0.00 0.07 0.07 94 1007.0
20260507010020 59 315 2.0 5.0 0.00 0.07 0.07 94 1007.0
20260507005019 59 270 3.0 9.0 0.00 0.07 0.07 94 1007.1
20260507004059 59 293 2.0 6.0 0.00 0.07 0.07 94 1006.9
20260507003039 59 315 2.0 4.0 0.00 0.07 0.07 94 1007.0
20260507002019 59 315 2.0 6.0 0.00 0.07 0.07 94 1006.9
20260507001119 59 315 2.0 6.0 0.00 0.07 0.07 94 1006.8
20260507000140 59 315 2.0 5.0 0.00 0.07 0.07 93 1006.6
20260506235019 59 293 2.0 6.0 0.02 0.07 0.07 93 1006.4
20260506234019 59 23 2.0 4.0 0.02 0.07 0.07 93 1006.5
20260506233039 59 315 2.0 4.0 0.02 0.07 0.07 93 1006.5
20260506232019 59 23 2.0 5.0 0.03 0.07 0.07 93 1006.3
20260506231019 59 338 2.0 4.0 0.03 0.07 0.07 93 1006.3
20260506230039 59 338 2.0 4.0 0.03 0.07 0.07 92 1006.5
20260506225019 60 180 2.0 6.0 0.01 0.05 0.05 92 1006.4
20260506224019 60 0 2.0 4.0 0.01 0.05 0.05 92 1006.5
20260506223019 60 0 2.0 6.0 0.01 0.05 0.05 92 1006.6
20260506222019 60 0 2.0 6.0 0.00 0.04 0.04 92 1006.6
20260506221020 60 158 2.0 5.0 0.00 0.04 0.04 91 1006.8
20260506220039 60 135 2.0 7.0 0.00 0.04 0.04 91 1006.8
20260506215019 60 338 1.0 4.0 0.00 0.04 0.04 91 1006.9
20260506214019 61 315 2.0 6.0 0.00 0.04 0.04 91 1006.9
20260506213040 61 23 2.0 4.0 0.00 0.04 0.04 90 1007.2
20260506212019 61 0 2.0 4.0 0.00 0.04 0.04 90 1007.2
20260506211019 60 315 2.0 6.0 0.00 0.04 0.04 90 1007.2
20260506210039 60 315 2.0 6.0 0.00 0.04 0.04 90 1007.3
20260506205019 61 315 3.0 6.0 0.00 0.04 0.04 90 1007.4
20260506204039 61 293 3.0 13.0 0.00 0.04 0.04 89 1007.5
20260506203039 61 293 3.0 8.0 0.00 0.04 0.04 89 1007.5
20260506202019 61 315 2.0 8.0 0.01 0.04 0.04 88 1007.6
20260506201019 61 315 3.0 8.0 0.02 0.04 0.04 88 1007.6
20260506200019 61 90 3.0 11.0 0.03 0.04 0.04 87 1007.5
20260506195019 62 315 2.0 7.0 0.04 0.04 0.04 86 1007.6
20260506194019 62 315 3.0 6.0 0.04 0.04 0.04 86 1007.5
20260506193018 63 315 3.0 8.0 0.04 0.04 0.04 84 1007.6
20260506192019 64 338 2.0 7.0 0.03 0.03 0.03 82 1007.8
20260506191019 65 315 3.0 7.0 0.02 0.02 0.02 80 1007.7
20260506190019 66 315 2.0 4.0 0.01 0.01 0.01 78 1007.6
20260506185039 66 293 3.0 9.0 0.00 0.00 0.00 77 1007.8
20260506184019 67 293 3.0 7.0 0.00 0.00 0.00 75 1007.9
20260506183018 68 293 3.0 7.0 0.00 0.00 0.00 73 1008.1
20260506182018 69 293 3.0 7.0 0.00 0.00 0.00 71 1008.2
20260506181019 69 293 4.0 13.0 0.00 0.00 0.00 68 1008.1
20260506180019 71 293 6.0 13.0 0.00 0.00 0.00 65 1008.2
20260506175018 72 293 3.0 9.0 0.00 0.00 0.00 62 1008.2
20260506174038 72 315 5.0 10.0 0.00 0.00 0.00 59 1008.1
20260506173018 73 315 5.0 13.0 0.00 0.00 0.00 58 1008.2
20260506172018 73 338 4.0 10.0 0.00 0.00 0.00 59 1008.1
20260506171019 73 315 3.0 8.0 0.00 0.00 0.00 60 1008.2
20260506170038 73 315 4.0 10.0 0.00 0.00 0.00 59 1008.3
20260506165018 73 315 4.0 13.0 0.00 0.00 0.00 59 1008.3
20260506164019 72 293 5.0 12.0 0.00 0.00 0.00 61 1008.6
20260506163039 72 293 4.0 11.0 0.00 0.00 0.00 61 1008.7
20260506162018 72 315 4.0 14.0 0.00 0.00 0.00 61 1008.7
20260506161038 71 315 2.0 6.0 0.00 0.00 0.00 63 1008.9
20260506160018 71 315 3.0 10.0 0.00 0.00 0.00 64 1009.3
20260506155018 70 0 2.0 8.0 0.00 0.00 0.00 64 1009.4
20260506154018 71 293 5.0 12.0 0.00 0.00 0.00 64 1009.3
20260506153038 71 315 3.0 10.0 0.00 0.00 0.00 63 1009.4
20260506152018 71 338 3.0 8.0 0.00 0.00 0.00 64 1009.7
20260506151018 71 293 4.0 11.0 0.00 0.00 0.00 64 1009.7
20260506150018 71 293 3.0 8.0 0.00 0.00 0.00 65 1009.8
20260506145019 71 315 4.0 11.0 0.00 0.00 0.00 66 1009.7
20260506144018 70 0 4.0 9.0 0.00 0.00 0.00 66 1009.8
20260506143018 70 68 2.0 7.0 0.00 0.00 0.00 68 1009.8
20260506142018 69 293 2.0 4.0 0.00 0.00 0.00 69 1009.8
20260506141018 68 68 2.0 6.0 0.00 0.00 0.00 70 1009.7
20260506140018 68 293 3.0 7.0 0.00 0.00 0.00 71 1009.7
20260506135038 68 315 4.0 11.0 0.00 0.00 0.00 72 1010.0
20260506134019 68 23 3.0 7.0 0.00 0.00 0.00 72 1009.9
20260506133018 68 270 4.0 10.0 0.00 0.00 0.00 72 1010.0
20260506132018 68 315 3.0 10.0 0.00 0.00 0.00 73 1010.5
20260506131039 66 338 3.0 8.0 0.00 0.00 0.00 75 1010.4
20260506130018 66 315 3.0 9.0 0.00 0.00 0.00 74 1010.3
20260506125039 66 315 4.0 8.0 0.00 0.00 0.00 75 1010.3
20260506124018 65 315 4.0 9.0 0.00 0.00 0.00 76 1010.2
20260506123018 64 338 2.0 9.0 0.00 0.00 0.00 78 1010.3
20260506122118 64 315 4.0 11.0 0.00 0.00 0.00 79 1010.4
20260506121058 63 338 4.0 10.0 0.00 0.00 0.00 79 1010.5
20260506120018 63 293 3.0 10.0 0.00 0.00 0.00 80 1010.4
20260506115018 62 315 3.0 8.0 0.00 0.00 0.00 81 1010.4
20260506114018 61 0 3.0 7.0 0.00 0.00 0.00 82 1010.8
20260506113018 61 315 4.0 12.0 0.00 0.00 0.00 82 1010.7
20260506112058 61 293 3.0 6.0 0.00 0.00 0.00 83 1011.1
20260506111018 60 315 3.0 9.0 0.00 0.00 0.00 83 1010.9
20260506110018 60 315 2.0 6.0 0.00 0.00 0.00 84 1010.8
20260506105018 60 0 2.0 9.0 0.00 0.00 0.00 84 1010.7
20260506104018 59 0 2.0 5.0 0.00 0.00 0.00 84 1010.9
20260506103018 59 0 2.0 4.0 0.00 0.00 0.00 84 1010.5
20260506102019 59 0 1.0 3.0 0.00 0.00 0.00 84 1010.7
20260506101017 59 135 2.0 5.0 0.00 0.00 0.00 84 1010.7
20260506100017 59 90 1.0 4.0 0.00 0.00 0.00 83 1010.4
20260506095018 59 45 2.0 8.0 0.00 0.00 0.00 83 1010.6
20260506094038 59 338 2.0 4.0 0.00 0.00 0.00 83 1010.4
20260506093017 59 315 1.0 4.0 0.00 0.00 0.00 83 1010.4
20260506092017 59 315 2.0 5.0 0.00 0.00 0.00 82 1010.5
20260506091018 59 270 1.0 4.0 0.00 0.00 0.00 82 1010.4
20260506090017 59 0 2.0 6.0 0.00 0.00 0.00 81 1010.4
20260506085018 59 338 2.0 4.0 0.00 0.00 0.00 81 1010.6
20260506084020 60 45 2.0 7.0 0.00 0.00 0.00 80 1010.8
20260506083019 60 23 3.0 10.0 0.00 0.00 0.00 80 1010.6
20260506082019 60 315 2.0 11.0 0.00 0.00 0.00 79 1010.7
20260506081059 60 293 2.0 5.0 0.00 0.00 0.00 79 1010.5
20260506073040 61 338 3.0 8.0 0.00 0.00 0.00 76 1010.7
20260506072020 61 315 3.0 8.0 0.00 0.00 0.00 76 1010.5
20260506071019 62 315 2.0 12.0 0.00 0.00 0.00 76 1010.3
20260506062019 63 315 2.0 4.0 0.00 0.00 0.00 73 1010.3
20260506061019 63 293 3.0 10.0 0.00 0.00 0.00 72 1010.3